,,PA_Meas_PMT16A,,PR_Meas_QMR101_102,,RH_Meas_QMH101,,SR_Meas_QMS101,,TA_Meas_QMH101,,GenWind,,GenWind,
time,status,PA,status,PR,status,RH,status,SR,status,TA,status,DirAvg,status,SpdAvg,
2010-01-03, 00:00:04,VALID,917.973,VALID,0,VALID,97.5721,VALID,0.107441,VALID,20.5578,VALID,11,VALID,1.01797,
2010-01-03, 00:01:04,VALID,917.957,VALID,0,VALID,97.5873,VALID,0.107441,VALID,20.5367,VALID,330,VALID,1.08633,
2010-01-03, 00:02:04,VALID,917.994,VALID,0,VALID,97.6026,VALID,0.107441,VALID,20.5367,VALID,328,VALID,0.883594,
2010-01-03, 00:03:04,VALID,917.97,VALID,0,VALID,97.5721,VALID,0.107441,VALID,20.5562,VALID,328,VALID,0.285937,
2010-01-03, 00:04:04,VALID,917.98,VALID,0,VALID,97.5797,VALID,0.107441,VALID,20.5562,VALID,328,VALID,0.555078,
2010-01-03, 00:05:04,VALID,917.967,VALID,0,VALID,97.5797,VALID,0,VALID,20.5562,VALID,328,VALID,0.535547,
2010-01-03, 00:06:04,VALID,917.964,VALID,0,VALID,97.6026,VALID,0.107441,VALID,20.5952,VALID,328,VALID,0.588672,
2010-01-03, 00:07:04,VALID,917.941,VALID,0,VALID,97.6026,VALID,0,VALID,20.6163,VALID,328,VALID,1.16328,
2010-01-03, 00:08:04,VALID,917.88,VALID,0,VALID,97.6102,VALID,0,VALID,20.5952,VALID,328,VALID,0.665625,
2010-01-03, 00:09:04,VALID,917.904,VALID,0,VALID,97.6026,VALID,0,VALID,20.6147,VALID,328,VALID,1.29531,
2010-01-03, 00:10:04,VALID,917.878,VALID,0,VALID,97.595,VALID,0,VALID,20.5757,VALID,13,VALID,1.80898,
2010-01-03, 00:11:04,VALID,917.881,VALID,0,VALID,97.5873,VALID,0,VALID,20.5773,VALID,16,VALID,1.51055,
2010-01-03, 00:12:04,VALID,917.872,VALID,0,VALID,97.6178,VALID,0,VALID,20.5773,VALID,31,VALID,1.12266,
2010-01-03, 00:13:04,VALID,917.881,VALID,0,VALID,97.6102,VALID,0,VALID,20.5773,VALID,31,VALID,1.05156,
2010-01-03, 00:14:04,VALID,917.904,VALID,0,VALID,97.6102,VALID,0,VALID,20.5562,VALID,31,VALID,1.00937,
2010-01-03, 00:15:04,VALID,917.924,VALID,0,VALID,97.595,VALID,0,VALID,20.5562,VALID,31,VALID,0.43125,
2010-01-03, 00:16:04,VALID,917.915,VALID,0,VALID,97.6255,VALID,0,VALID,20.5968,VALID,31,VALID,0.520703,
2010-01-03, 00:17:04,VALID,917.915,VALID,0,VALID,97.6026,VALID,0,VALID,20.6163,VALID,31,VALID,0.268359,
2010-01-03, 00:18:04,VALID,917.934,VALID,0,VALID,97.595,VALID,0,VALID,20.6163,VALID,31,VALID,0.267188,
2010-01-03, 00:19:04,VALID,917.899,VALID,0,VALID,97.6255,VALID,0,VALID,20.6163,VALID,31,VALID,0.522266,
2010-01-03, 00:20:04,VALID,917.884,VALID,0,VALID,97.6102,VALID,0,VALID,20.6342,VALID,31,VALID,0.577344,
2010-01-03, 00:21:04,VALID,917.86,VALID,0,VALID,97.6178,VALID,0.107441,VALID,20.6733,VALID,31,VALID,0.766406,
2010-01-03, 00:22:04,VALID,917.846,VALID,0,VALID,97.6178,VALID,0,VALID,20.6748,VALID,31,VALID,0.849609,
2010-01-03, 00:23:04,VALID,917.831,VALID,0,VALID,97.6026,VALID,0.107441,VALID,20.6748,VALID,31,VALID,0.932031,
2010-01-03, 00:24:04,VALID,917.785,VALID,0,VALID,97.6255,VALID,0,VALID,20.6943,VALID,31,VALID,0.429297,
2010-01-03, 00:25:04,VALID,917.813,VALID,0,VALID,97.6331,VALID,0,VALID,20.7138,VALID,31,VALID,0.657812,
2010-01-03, 00:26:04,VALID,917.818,VALID,0,VALID,97.5873,VALID,0,VALID,20.7333,VALID,31,VALID,0.414844,
2010-01-03, 00:27:04,VALID,917.813,VALID,0,VALID,97.6102,VALID,0,VALID,20.7528,VALID,31,VALID,0.546875,
2010-01-03, 00:28:04,VALID,917.794,VALID,0,VALID,97.5797,VALID,0,VALID,20.7333,VALID,31,VALID,0.359766,
2010-01-03, 00:29:04,VALID,917.818,VALID,0,VALID,97.6026,VALID,0,VALID,20.6733,VALID,31,VALID,0.644141,
2010-01-03, 00:30:04,VALID,917.846,VALID,0,VALID,97.6178,VALID,0.107441,VALID,20.6748,VALID,31,VALID,0.361719,
2010-01-03, 00:31:04,VALID,917.839,VALID,0,VALID,97.5873,VALID,0,VALID,20.6748,VALID,31,VALID,0.186328,
2010-01-03, 00:32:04,VALID,917.842,VALID,0,VALID,97.5873,VALID,0,VALID,20.6553,VALID,31,VALID,0.117188,
2010-01-03, 00:33:04,VALID,917.863,VALID,0,VALID,97.6331,VALID,0.107441,VALID,20.6537,VALID,31,VALID,0,
2010-01-03, 00:34:04,VALID,917.866,VALID,0,VALID,97.6331,VALID,0.107441,VALID,20.6553,VALID,31,VALID,0,
2010-01-03, 00:35:04,VALID,917.847,VALID,0,VALID,97.6331,VALID,0,VALID,20.6943,VALID,31,VALID,0.197656,
2010-01-03, 00:36:04,VALID,917.847,VALID,0,VALID,97.6178,VALID,0,VALID,20.7333,VALID,31,VALID,0,
2010-01-03, 00:37:04,VALID,917.844,VALID,0,VALID,97.6255,VALID,0,VALID,20.6733,VALID,31,VALID,0,
2010-01-03, 00:38:04,VALID,917.806,VALID,0,VALID,97.6026,VALID,0,VALID,20.6943,VALID,31,VALID,0.0148437,
2010-01-03, 00:39:04,VALID,917.796,VALID,0,VALID,97.6102,VALID,0,VALID,20.6928,VALID,31,VALID,0.402734,
2010-01-03, 00:40:04,VALID,917.798,VALID,0,VALID,97.6102,VALID,0,VALID,20.7333,VALID,31,VALID,0.75625,
2010-01-03, 00:41:04,VALID,917.78,VALID,0,VALID,97.6255,VALID,0,VALID,20.6928,VALID,31,VALID,0.991406,
2010-01-03, 00:42:04,VALID,917.78,VALID,0,VALID,97.6178,VALID,0,VALID,20.7528,VALID,31,VALID,0.522656,
2010-01-03, 00:43:04,VALID,917.745,VALID,0,VALID,97.6026,VALID,0,VALID,20.7528,VALID,31,VALID,0.676172,
2010-01-03, 00:44:04,VALID,917.75,VALID,0,VALID,97.6255,VALID,0,VALID,20.7723,VALID,31,VALID,0.408984,
2010-01-03, 00:45:04,VALID,917.739,VALID,0,VALID,97.6407,VALID,0,VALID,20.7513,VALID,31,VALID,0.333984,
2010-01-03, 00:46:04,VALID,917.703,VALID,0,VALID,97.6102,VALID,0,VALID,20.6943,VALID,31,VALID,0.0925781,
2010-01-03, 00:47:04,VALID,917.717,VALID,0,VALID,97.6026,VALID,0,VALID,20.7138,VALID,31,VALID,0,
2010-01-03, 00:48:04,VALID,917.681,VALID,0,VALID,97.595,VALID,0,VALID,20.7138,VALID,31,VALID,0,
2010-01-03, 00:49:04,VALID,917.632,VALID,0,VALID,97.6026,VALID,0,VALID,20.7333,VALID,31,VALID,0,
2010-01-03, 00:50:04,VALID,917.645,VALID,0,VALID,97.6178,VALID,0,VALID,20.7138,VALID,31,VALID,0,
2010-01-03, 00:51:04,VALID,917.586,VALID,0,VALID,97.6255,VALID,0,VALID,20.7138,VALID,31,VALID,0,
2010-01-03, 00:52:04,VALID,917.576,VALID,0,VALID,97.6178,VALID,0,VALID,20.6928,VALID,31,VALID,0.380469,
2010-01-03, 00:53:04,VALID,917.531,VALID,0,VALID,97.6178,VALID,0,VALID,20.6943,VALID,31,VALID,0.922266,
2010-01-03, 00:54:04,VALID,917.517,VALID,0,VALID,97.6255,VALID,0.107441,VALID,20.7138,VALID,31,VALID,1.11328,
2010-01-03, 00:55:04,VALID,917.519,VALID,0,VALID,97.6255,VALID,0,VALID,20.7333,VALID,31,VALID,1.24297,
2010-01-03, 00:56:04,VALID,917.535,VALID,0,VALID,97.6178,VALID,0,VALID,20.7333,VALID,31,VALID,0.944141,
2010-01-03, 00:57:04,VALID,917.531,VALID,0,VALID,97.6102,VALID,0,VALID,20.7318,VALID,31,VALID,0.309766,
2010-01-03, 00:58:04,VALID,917.532,VALID,0,VALID,97.6178,VALID,0.107441,VALID,20.7138,VALID,31,VALID,0.876953,
2010-01-03, 00:59:04,VALID,917.542,VALID,0,VALID,97.6102,VALID,0,VALID,20.7138,VALID,31,VALID,0.907812,
2010-01-03, 01:00:04,VALID,917.549,VALID,0,VALID,97.6255,VALID,0,VALID,20.7138,VALID,31,VALID,0.810156,
2010-01-03, 01:01:04,VALID,917.541,VALID,0,VALID,97.6255,VALID,0,VALID,20.7138,VALID,31,VALID,1.1668,
2010-01-03, 01:02:04,VALID,917.531,VALID,0,VALID,97.6102,VALID,0,VALID,20.7138,VALID,30,VALID,0.764063,
2010-01-03, 01:03:04,VALID,917.532,VALID,0,VALID,97.6255,VALID,0,VALID,20.7138,VALID,30,VALID,0.767969,
2010-01-03, 01:04:04,VALID,917.524,VALID,0,VALID,97.6178,VALID,0,VALID,20.7333,VALID,30,VALID,0.116016,
2010-01-03, 01:05:04,VALID,917.502,VALID,0,VALID,97.595,VALID,0,VALID,20.7138,VALID,30,VALID,0.310156,
2010-01-03, 01:06:04,VALID,917.441,VALID,0,VALID,97.6178,VALID,0,VALID,20.6748,VALID,30,VALID,0.648828,
2010-01-03, 01:07:04,VALID,917.442,VALID,0,VALID,97.6255,VALID,0,VALID,20.6764,VALID,30,VALID,1.08633,
2010-01-03, 01:08:04,VALID,917.401,VALID,0,VALID,97.6331,VALID,0,VALID,20.6748,VALID,30,VALID,0.634375,
2010-01-03, 01:09:04,VALID,917.402,VALID,0,VALID,97.6178,VALID,0.107441,VALID,20.6358,VALID,30,VALID,0.853516,
2010-01-03, 01:10:04,VALID,917.361,VALID,0,VALID,97.595,VALID,0.107441,VALID,20.6147,VALID,29,VALID,0.712109,
2010-01-03, 01:11:04,VALID,917.347,VALID,0,VALID,97.6102,VALID,0,VALID,20.6342,VALID,29,VALID,0.757422,
2010-01-03, 01:12:04,VALID,917.365,VALID,0,VALID,97.6102,VALID,0,VALID,20.6733,VALID,29,VALID,0.696875,
2010-01-03, 01:13:04,VALID,917.307,VALID,0,VALID,97.6331,VALID,0,VALID,20.6537,VALID,29,VALID,0.728906,
2010-01-03, 01:14:04,VALID,917.298,VALID,0,VALID,97.6178,VALID,0,VALID,20.6553,VALID,29,VALID,1.05156,
2010-01-03, 01:15:04,VALID,917.291,VALID,0,VALID,97.6178,VALID,0.107441,VALID,20.6748,VALID,29,VALID,0.632422,
2010-01-03, 01:16:04,VALID,917.245,VALID,0,VALID,97.6178,VALID,0,VALID,20.6733,VALID,29,VALID,0.322656,
2010-01-03, 01:17:04,VALID,917.241,VALID,0,VALID,97.6255,VALID,0.107441,VALID,20.6733,VALID,29,VALID,0.616016,
2010-01-03, 01:18:04,VALID,917.221,VALID,0,VALID,97.6255,VALID,0,VALID,20.6943,VALID,29,VALID,0.666797,
2010-01-03, 01:19:04,VALID,917.209,VALID,0,VALID,97.6255,VALID,0,VALID,20.6748,VALID,29,VALID,0.496094,
2010-01-03, 01:20:04,VALID,917.171,VALID,0,VALID,97.6407,VALID,0,VALID,20.6733,VALID,29,VALID,0.847656,
2010-01-03, 01:21:04,VALID,917.153,VALID,0,VALID,97.6178,VALID,0.107441,VALID,20.6748,VALID,29,VALID,1.10234,
2010-01-03, 01:22:04,VALID,917.12,VALID,0,VALID,97.6178,VALID,0,VALID,20.6553,VALID,29,VALID,1.01797,
2010-01-03, 01:23:04,VALID,917.106,VALID,0,VALID,97.6255,VALID,0,VALID,20.6163,VALID,28,VALID,1.35977,
2010-01-03, 01:24:04,VALID,917.067,VALID,0,VALID,97.6255,VALID,0,VALID,20.6163,VALID,27,VALID,1.33828,
2010-01-03, 01:25:04,VALID,917.051,VALID,0,VALID,97.6178,VALID,0.107441,VALID,20.5952,VALID,26,VALID,1.275,
2010-01-03, 01:26:04,VALID,917.027,VALID,0,VALID,97.6255,VALID,0.107441,VALID,20.5578,VALID,29,VALID,1.60781,
2010-01-03, 01:27:04,VALID,917.048,VALID,0,VALID,97.6178,VALID,0,VALID,20.5578,VALID,12,VALID,1.34844,
2010-01-03, 01:28:04,VALID,917,VALID,0,VALID,97.6255,VALID,0,VALID,20.5383,VALID,360,VALID,0.607813,
2010-01-03, 01:29:04,VALID,916.974,VALID,0,VALID,97.6407,VALID,0,VALID,20.5188,VALID,360,VALID,1.10391,
2010-01-03, 01:30:04,VALID,916.951,VALID,0,VALID,97.6407,VALID,0,VALID,20.5578,VALID,342,VALID,0.660547,
2010-01-03, 01:31:04,VALID,916.891,VALID,0,VALID,97.6407,VALID,0,VALID,20.5578,VALID,324,VALID,0.742578,
2010-01-03, 01:32:04,VALID,916.873,VALID,0,VALID,97.6407,VALID,0.107441,VALID,20.5188,VALID,324,VALID,1.18906,
2010-01-03, 01:33:04,VALID,916.834,VALID,0,VALID,97.6407,VALID,0,VALID,20.4977,VALID,324,VALID,1.13516,
2010-01-03, 01:34:04,VALID,916.826,VALID,0,VALID,97.6483,VALID,0,VALID,20.5399,VALID,325,VALID,1.08789,
2010-01-03, 01:35:04,VALID,916.818,VALID,0,VALID,97.6331,VALID,0.107441,VALID,20.4782,VALID,325,VALID,1.05469,
2010-01-03, 01:36:04,VALID,916.83,VALID,0,VALID,97.6483,VALID,0,VALID,20.4798,VALID,325,VALID,0.544531,
2010-01-03, 01:37:04,VALID,916.794,VALID,0,VALID,97.656,VALID,0,VALID,20.4798,VALID,325,VALID,0.452344,
2010-01-03, 01:38:04,VALID,916.807,VALID,0,VALID,97.656,VALID,0,VALID,20.5188,VALID,325,VALID,0.273828,
2010-01-03, 01:39:04,VALID,916.77,VALID,0,VALID,97.6407,VALID,0,VALID,20.4993,VALID,325,VALID,0.291797,
2010-01-03, 01:40:04,VALID,916.75,VALID,0,VALID,97.6407,VALID,0.107441,VALID,20.4977,VALID,325,VALID,0.633984,
2010-01-03, 01:41:04,VALID,916.732,VALID,0,VALID,97.6483,VALID,0,VALID,20.4993,VALID,324,VALID,0.369531,
2010-01-03, 01:42:04,VALID,916.713,VALID,0,VALID,97.656,VALID,0,VALID,20.4813,VALID,324,VALID,0.524219,
2010-01-03, 01:43:04,VALID,916.74,VALID,0,VALID,97.6483,VALID,0,VALID,20.4213,VALID,325,VALID,0.554688,
2010-01-03, 01:44:04,VALID,916.735,VALID,0,VALID,97.6636,VALID,0,VALID,20.4408,VALID,324,VALID,0.201953,
2010-01-03, 01:45:04,VALID,916.736,VALID,0,VALID,97.6941,VALID,0,VALID,20.4618,VALID,324,VALID,0,
2010-01-03, 01:46:04,VALID,916.721,VALID,0,VALID,97.6407,VALID,0,VALID,20.4798,VALID,324,VALID,0,
2010-01-03, 01:47:04,VALID,916.675,VALID,0,VALID,97.6636,VALID,0,VALID,20.4782,VALID,324,VALID,0,
2010-01-03, 01:48:04,VALID,916.665,VALID,0,VALID,97.6712,VALID,0.107441,VALID,20.4977,VALID,324,VALID,0,
2010-01-03, 01:49:04,VALID,916.642,VALID,0,VALID,97.656,VALID,0.107441,VALID,20.5383,VALID,324,VALID,0,
2010-01-03, 01:50:04,VALID,916.622,VALID,0,VALID,97.6636,VALID,0,VALID,20.5578,VALID,324,VALID,0,
2010-01-03, 01:51:04,VALID,916.628,VALID,0,VALID,97.6483,VALID,0,VALID,20.4977,VALID,325,VALID,0.436328,
2010-01-03, 01:52:04,VALID,916.621,VALID,0,VALID,97.656,VALID,0.107441,VALID,20.4993,VALID,324,VALID,0,
2010-01-03, 01:53:04,VALID,916.651,VALID,0,VALID,97.6712,VALID,0,VALID,20.5188,VALID,324,VALID,0.367188,
2010-01-03, 01:54:04,VALID,916.649,VALID,0,VALID,97.6407,VALID,0.107441,VALID,20.4993,VALID,324,VALID,0.247656,
2010-01-03, 01:55:04,VALID,916.613,VALID,0,VALID,97.6788,VALID,0,VALID,20.4782,VALID,324,VALID,0.659375,
2010-01-03, 01:56:04,VALID,916.588,VALID,0,VALID,97.656,VALID,0,VALID,20.4993,VALID,324,VALID,0.136328,
2010-01-03, 01:57:04,VALID,916.565,VALID,0,VALID,97.6636,VALID,0,VALID,20.4813,VALID,324,VALID,0.491016,
2010-01-03, 01:58:04,VALID,916.528,VALID,0,VALID,97.656,VALID,0,VALID,20.4993,VALID,324,VALID,0.566016,
2010-01-03, 01:59:04,VALID,916.53,VALID,0,VALID,97.656,VALID,0.107441,VALID,20.4392,VALID,324,VALID,0.539844,
2010-01-03, 02:00:04,VALID,916.48,VALID,0,VALID,97.6483,VALID,0,VALID,20.4408,VALID,324,VALID,0.660156,
2010-01-03, 02:01:04,VALID,916.448,VALID,0,VALID,97.6483,VALID,0,VALID,20.4002,VALID,324,VALID,0.824219,
2010-01-03, 02:02:04,VALID,916.409,VALID,0,VALID,97.6712,VALID,0,VALID,20.3628,VALID,324,VALID,0.409375,
2010-01-03, 02:03:04,VALID,916.402,VALID,0,VALID,97.6865,VALID,0.107441,VALID,20.3628,VALID,324,VALID,0.542188,
2010-01-03, 02:04:04,VALID,916.386,VALID,0,VALID,97.6865,VALID,0,VALID,20.4018,VALID,324,VALID,0.178125,
2010-01-03, 02:05:04,VALID,916.396,VALID,0,VALID,97.6788,VALID,0,VALID,20.4018,VALID,324,VALID,0,
2010-01-03, 02:06:04,VALID,916.412,VALID,0,VALID,97.6712,VALID,0,VALID,20.4033,VALID,324,VALID,0,
2010-01-03, 02:07:04,VALID,916.375,VALID,0,VALID,97.6712,VALID,0.107441,VALID,20.3433,VALID,324,VALID,0.230078,
2010-01-03, 02:08:04,VALID,916.34,VALID,0,VALID,97.6788,VALID,0,VALID,20.3628,VALID,324,VALID,0,
2010-01-03, 02:09:04,VALID,916.36,VALID,0,VALID,97.6941,VALID,0.107441,VALID,20.3433,VALID,324,VALID,0,
2010-01-03, 02:10:04,VALID,916.346,VALID,0,VALID,97.6788,VALID,0.107441,VALID,20.3043,VALID,324,VALID,0.302734,
2010-01-03, 02:11:04,VALID,916.325,VALID,0,VALID,97.656,VALID,0,VALID,20.2653,VALID,324,VALID,0.878906,
2010-01-03, 02:12:04,VALID,916.288,VALID,0,VALID,97.6865,VALID,0,VALID,20.2263,VALID,324,VALID,0.767969,
2010-01-03, 02:13:04,VALID,916.313,VALID,0,VALID,97.6865,VALID,0.107441,VALID,20.1873,VALID,80,VALID,0.934766,
2010-01-03, 02:14:04,VALID,916.273,VALID,0,VALID,97.7017,VALID,0.107441,VALID,20.1678,VALID,80,VALID,0.980859,
2010-01-03, 02:15:04,VALID,916.258,VALID,0,VALID,97.6865,VALID,0.107441,VALID,20.1662,VALID,80,VALID,0.701563,
2010-01-03, 02:16:04,VALID,916.256,VALID,0,VALID,97.7017,VALID,0,VALID,20.1873,VALID,80,VALID,0.88125,
2010-01-03, 02:17:04,VALID,916.204,VALID,0,VALID,97.7169,VALID,0.107441,VALID,20.1873,VALID,80,VALID,0.533984,
2010-01-03, 02:18:04,VALID,916.173,VALID,0,VALID,97.7169,VALID,0,VALID,20.1873,VALID,80,VALID,0.637891,
2010-01-03, 02:19:04,VALID,916.144,VALID,0,VALID,97.6865,VALID,0,VALID,20.2068,VALID,80,VALID,0.723437,
2010-01-03, 02:20:04,VALID,916.111,VALID,0,VALID,97.6788,VALID,0.107441,VALID,20.1467,VALID,80,VALID,0.812891,
2010-01-03, 02:21:04,VALID,916.116,VALID,0,VALID,97.7093,VALID,0.107441,VALID,20.1678,VALID,80,VALID,0.842578,
2010-01-03, 02:22:04,VALID,916.072,VALID,0,VALID,97.7169,VALID,0,VALID,20.1678,VALID,80,VALID,0.887109,
2010-01-03, 02:23:04,VALID,916.007,VALID,0,VALID,97.7093,VALID,0,VALID,20.1678,VALID,80,VALID,0.726953,
2010-01-03, 02:24:04,VALID,916.029,VALID,0,VALID,97.7169,VALID,0.107441,VALID,20.1873,VALID,80,VALID,0.733203,
2010-01-03, 02:25:04,VALID,916.033,VALID,0,VALID,97.6941,VALID,0,VALID,20.2083,VALID,80,VALID,0.367578,
2010-01-03, 02:26:04,VALID,916.016,VALID,0,VALID,97.7169,VALID,0,VALID,20.1873,VALID,80,VALID,0.415625,
2010-01-03, 02:27:04,VALID,916.047,VALID,0,VALID,97.7093,VALID,0.107441,VALID,20.1873,VALID,80,VALID,0.466406,
2010-01-03, 02:28:04,VALID,916.031,VALID,0,VALID,97.7169,VALID,0,VALID,20.2068,VALID,81,VALID,0.599219,
2010-01-03, 02:29:04,VALID,916.05,VALID,0,VALID,97.7246,VALID,0.107441,VALID,20.2052,VALID,81,VALID,0.521875,
2010-01-03, 02:30:04,VALID,916.042,VALID,0,VALID,97.7246,VALID,0,VALID,20.2263,VALID,96,VALID,0.53125,
2010-01-03, 02:31:04,VALID,916.041,VALID,0,VALID,97.7169,VALID,0,VALID,20.2263,VALID,132,VALID,1.00586,
2010-01-03, 02:32:04,VALID,916.062,VALID,0,VALID,97.7246,VALID,0,VALID,20.2068,VALID,136,VALID,0.847656,
2010-01-03, 02:33:04,VALID,916.042,VALID,0,VALID,97.7246,VALID,0,VALID,20.2278,VALID,136,VALID,0.728516,
2010-01-03, 02:34:04,VALID,916.04,VALID,0,VALID,97.7246,VALID,0,VALID,20.2068,VALID,136,VALID,0.483203,
2010-01-03, 02:35:04,VALID,916.031,VALID,0,VALID,97.7474,VALID,0.107441,VALID,20.2068,VALID,136,VALID,0.754297,
2010-01-03, 02:36:04,VALID,916.008,VALID,0,VALID,97.7169,VALID,0,VALID,20.2263,VALID,136,VALID,0.685938,
2010-01-03, 02:37:04,VALID,915.996,VALID,0,VALID,97.7474,VALID,0.107441,VALID,20.2263,VALID,136,VALID,0.514844,
2010-01-03, 02:38:04,VALID,915.996,VALID,0,VALID,97.7322,VALID,0,VALID,20.2247,VALID,136,VALID,0.870703,
2010-01-03, 02:39:04,VALID,915.977,VALID,0,VALID,97.7093,VALID,0.107441,VALID,20.2263,VALID,136,VALID,0.545313,
2010-01-03, 02:40:04,VALID,915.974,VALID,0,VALID,97.7398,VALID,0.107441,VALID,20.2458,VALID,136,VALID,0.4375,
2010-01-03, 02:41:04,VALID,915.935,VALID,0,VALID,97.7169,VALID,0,VALID,20.2458,VALID,136,VALID,0.727734,
2010-01-03, 02:42:04,VALID,915.92,VALID,0,VALID,97.7246,VALID,0,VALID,20.2653,VALID,136,VALID,0.653516,
2010-01-03, 02:43:04,VALID,915.87,VALID,0,VALID,97.7246,VALID,0,VALID,20.2458,VALID,136,VALID,0.54375,
2010-01-03, 02:44:04,VALID,915.882,VALID,0,VALID,97.7398,VALID,0.107441,VALID,20.2458,VALID,136,VALID,0.303906,
2010-01-03, 02:45:04,VALID,915.864,VALID,0,VALID,97.7246,VALID,0.107441,VALID,20.2653,VALID,136,VALID,0,
2010-01-03, 02:46:04,VALID,915.879,VALID,0,VALID,97.7169,VALID,0.107441,VALID,20.2653,VALID,136,VALID,0,
2010-01-03, 02:47:04,VALID,915.867,VALID,0,VALID,97.7246,VALID,0,VALID,20.2848,VALID,136,VALID,0,
2010-01-03, 02:48:04,VALID,915.853,VALID,0,VALID,97.7246,VALID,0,VALID,20.2653,VALID,136,VALID,0,
2010-01-03, 02:49:04,VALID,915.822,VALID,0,VALID,97.7246,VALID,0,VALID,20.2263,VALID,136,VALID,0,
2010-01-03, 02:50:04,VALID,915.83,VALID,0,VALID,97.7474,VALID,0,VALID,20.2458,VALID,136,VALID,0,
2010-01-03, 02:51:04,VALID,915.846,VALID,0,VALID,97.7322,VALID,0,VALID,20.2458,VALID,136,VALID,0,
2010-01-03, 02:52:04,VALID,915.855,VALID,0,VALID,97.7322,VALID,0,VALID,20.2458,VALID,136,VALID,0.602344,
2010-01-03, 02:53:04,VALID,915.863,VALID,0,VALID,97.7322,VALID,0,VALID,20.2263,VALID,136,VALID,0.0480469,
2010-01-03, 02:54:04,VALID,915.835,VALID,0,VALID,97.7169,VALID,0.107441,VALID,20.2458,VALID,136,VALID,0,
2010-01-03, 02:55:04,VALID,915.818,VALID,0,VALID,97.7322,VALID,0.107441,VALID,20.2442,VALID,136,VALID,0,
2010-01-03, 02:56:04,VALID,915.819,VALID,0,VALID,97.7322,VALID,0.107441,VALID,20.2458,VALID,136,VALID,0,
2010-01-03, 02:57:04,VALID,915.795,VALID,0,VALID,97.7322,VALID,0,VALID,20.2263,VALID,136,VALID,0,
2010-01-03, 02:58:04,VALID,915.785,VALID,0,VALID,97.7322,VALID,0.107441,VALID,20.2263,VALID,136,VALID,0.451562,
2010-01-03, 02:59:04,VALID,915.753,VALID,0,VALID,97.7246,VALID,0,VALID,20.2068,VALID,136,VALID,0.1875,
2010-01-03, 03:00:04,VALID,915.77,VALID,0,VALID,97.7246,VALID,0.107441,VALID,20.2068,VALID,136,VALID,0.101953,
2010-01-03, 03:01:04,VALID,915.754,VALID,0,VALID,97.7322,VALID,0.107441,VALID,20.1662,VALID,136,VALID,0.0207031,
2010-01-03, 03:02:04,VALID,915.728,VALID,0,VALID,97.7169,VALID,0.107441,VALID,20.1678,VALID,136,VALID,0.178125,
2010-01-03, 03:03:04,VALID,915.726,VALID,0,VALID,97.7169,VALID,0.107441,VALID,20.1077,VALID,136,VALID,0.353125,
2010-01-03, 03:04:04,VALID,915.727,VALID,0,VALID,97.7398,VALID,0,VALID,20.0898,VALID,136,VALID,0.139062,
2010-01-03, 03:05:04,VALID,915.759,VALID,0,VALID,97.7474,VALID,0.107441,VALID,20.1093,VALID,136,VALID,0,
2010-01-03, 03:06:04,VALID,915.736,VALID,0,VALID,97.7398,VALID,0,VALID,20.0898,VALID,136,VALID,0,
2010-01-03, 03:07:04,VALID,915.744,VALID,0,VALID,97.7474,VALID,0.107441,VALID,20.1093,VALID,136,VALID,0.248047,
2010-01-03, 03:08:04,VALID,915.72,VALID,0,VALID,97.7474,VALID,0,VALID,20.1093,VALID,136,VALID,0.153125,
2010-01-03, 03:09:04,VALID,915.689,VALID,0,VALID,97.7474,VALID,0,VALID,20.1093,VALID,136,VALID,0,
2010-01-03, 03:10:04,VALID,915.657,VALID,0,VALID,97.7551,VALID,0.107441,VALID,20.1288,VALID,136,VALID,0.325781,
2010-01-03, 03:11:04,VALID,915.634,VALID,0,VALID,97.7246,VALID,0.107441,VALID,20.1288,VALID,136,VALID,0.548047,
2010-01-03, 03:12:04,VALID,915.621,VALID,0,VALID,97.7322,VALID,0,VALID,20.1288,VALID,136,VALID,0.376563,
2010-01-03, 03:13:04,VALID,915.62,VALID,0,VALID,97.7246,VALID,0,VALID,20.0898,VALID,136,VALID,0.5,
2010-01-03, 03:14:04,VALID,915.664,VALID,0,VALID,97.7322,VALID,0,VALID,20.0703,VALID,136,VALID,0.675391,
2010-01-03, 03:15:04,VALID,915.655,VALID,0,VALID,97.7551,VALID,0,VALID,20.0508,VALID,136,VALID,0.433203,
2010-01-03, 03:16:04,VALID,915.612,VALID,0,VALID,97.7627,VALID,0,VALID,20.0508,VALID,136,VALID,0.344531,
2010-01-03, 03:17:04,VALID,915.658,VALID,0,VALID,97.7398,VALID,0,VALID,20.0508,VALID,136,VALID,0.0515625,
2010-01-03, 03:18:04,VALID,915.666,VALID,0,VALID,97.7169,VALID,0,VALID,19.9728,VALID,136,VALID,0.900391,
2010-01-03, 03:19:04,VALID,915.672,VALID,0,VALID,97.7322,VALID,0,VALID,19.9338,VALID,136,VALID,0.983203,
2010-01-03, 03:20:04,VALID,915.684,VALID,0,VALID,97.7474,VALID,0,VALID,19.9533,VALID,136,VALID,0.498828,
2010-01-03, 03:21:04,VALID,915.643,VALID,0,VALID,97.7703,VALID,0,VALID,19.9548,VALID,136,VALID,0.367969,
2010-01-03, 03:22:04,VALID,915.627,VALID,0,VALID,97.7398,VALID,0,VALID,19.9533,VALID,136,VALID,0.855078,
2010-01-03, 03:23:04,VALID,915.655,VALID,0,VALID,97.7627,VALID,0,VALID,19.9323,VALID,136,VALID,0.455859,
2010-01-03, 03:24:04,VALID,915.675,VALID,0,VALID,97.7703,VALID,0,VALID,19.9728,VALID,136,VALID,0.847656,
2010-01-03, 03:25:04,VALID,915.668,VALID,0,VALID,97.7398,VALID,0,VALID,20.0133,VALID,136,VALID,0.802734,
2010-01-03, 03:26:04,VALID,915.657,VALID,0,VALID,97.7551,VALID,0.107441,VALID,20.0313,VALID,136,VALID,0.0207031,
2010-01-03, 03:27:04,VALID,915.604,VALID,0,VALID,97.7551,VALID,0,VALID,20.0508,VALID,136,VALID,0,
2010-01-03, 03:28:04,VALID,915.59,VALID,0,VALID,97.7551,VALID,0,VALID,20.0508,VALID,136,VALID,0.447266,
2010-01-03, 03:29:04,VALID,915.606,VALID,0,VALID,97.7551,VALID,0,VALID,20.0313,VALID,136,VALID,0.740625,
2010-01-03, 03:30:04,VALID,915.571,VALID,0,VALID,97.7551,VALID,0,VALID,20.0118,VALID,136,VALID,0.585156,
2010-01-03, 03:31:04,VALID,915.57,VALID,0,VALID,97.7627,VALID,0,VALID,20.0118,VALID,136,VALID,0.937891,
2010-01-03, 03:32:04,VALID,915.551,VALID,0,VALID,97.7551,VALID,0,VALID,19.9923,VALID,136,VALID,0.206641,
2010-01-03, 03:33:04,VALID,915.521,VALID,0,VALID,97.7627,VALID,0,VALID,19.9923,VALID,136,VALID,0.501562,
2010-01-03, 03:34:04,VALID,915.573,VALID,0,VALID,97.7551,VALID,0,VALID,19.9938,VALID,136,VALID,0.5875,
2010-01-03, 03:35:04,VALID,915.516,VALID,0,VALID,97.7474,VALID,0,VALID,19.9728,VALID,136,VALID,0.229687,
2010-01-03, 03:36:04,VALID,915.52,VALID,0,VALID,97.7703,VALID,0,VALID,19.9533,VALID,136,VALID,0.161328,
2010-01-03, 03:37:04,VALID,915.517,VALID,0,VALID,97.7703,VALID,0.107441,VALID,19.9533,VALID,136,VALID,0.216797,
2010-01-03, 03:38:04,VALID,915.498,VALID,0,VALID,97.7703,VALID,0,VALID,19.9728,VALID,136,VALID,0.180078,
2010-01-03, 03:39:04,VALID,915.465,VALID,0,VALID,97.7627,VALID,0,VALID,19.9923,VALID,136,VALID,0.138281,
2010-01-03, 03:40:04,VALID,915.456,VALID,0,VALID,97.7322,VALID,0,VALID,19.9923,VALID,136,VALID,1.00547,
2010-01-03, 03:41:04,VALID,915.43,VALID,0,VALID,97.7474,VALID,0,VALID,19.9533,VALID,136,VALID,1.04375,
2010-01-03, 03:42:04,VALID,915.454,VALID,0,VALID,97.7703,VALID,0.107441,VALID,19.9338,VALID,136,VALID,0.545703,
2010-01-03, 03:43:04,VALID,915.448,VALID,0,VALID,97.7474,VALID,0.107441,VALID,19.9338,VALID,136,VALID,0.41875,